Location: Whitehorse
(60.7170°N, 135.0500°W)
Time: 23:08:10
(UTC-07:00)

SL-16 R/B - Visible Passes

Search period start: 30 April 2016 00:00
Search period end: 10 May 2016 00:00
Orbit: 843 x 847 km, 71.0° (Epoch: 30 April)

Date Brightness Start Highest point End Pass type
(mag) Time Alt. Az. Time Alt. Az. Time Alt. Az.
30 Apr 3.3 03:18:38 13° S 03:23:04 33° ESE 03:28:06 10° NE visible
30 Apr 2.3 05:01:08 10° SW 05:06:50 78° NW 05:12:32 10° NE visible
01 May 3.3 03:04:49 14° SSE 03:09:02 33° ESE 03:14:02 10° NE visible
01 May 2.3 04:47:06 10° SW 04:52:47 79° NW 04:58:30 10° NE visible
02 May 3.3 02:50:59 14° SSE 02:55:01 32° ESE 02:59:58 10° NE visible
02 May 2.3 04:33:02 10° SW 04:38:44 81° NW 04:44:27 10° NE visible
03 May 3.3 02:37:06 15° SSE 02:40:59 31° ESE 02:45:55 10° NE visible
03 May 2.3 04:18:59 10° SW 04:24:41 82° NW 04:30:24 10° NE visible
04 May 3.3 02:23:12 15° SSE 02:26:58 31° ESE 02:31:51 10° NE visible
04 May 2.3 04:05:03 11° SW 04:10:38 83° NW 04:16:22 10° NE visible
05 May 3.3 02:09:15 15° SSE 02:12:56 30° ESE 02:17:48 10° NE visible
05 May 2.3 03:51:07 11° SW 03:56:35 85° NW 04:02:19 10° NE visible
06 May 3.3 01:55:17 15° SSE 01:58:55 29° ESE 02:03:44 10° NE visible
06 May 2.3 03:37:09 12° SW 03:42:33 86° NW 03:48:16 10° NE visible
07 May 3.4 01:41:17 15° SSE 01:44:54 29° ESE 01:49:40 10° NE visible
07 May 2.2 03:23:08 12° SW 03:28:30 88° NW 03:34:13 10° NE visible
08 May 3.4 01:27:14 15° SSE 01:30:52 28° ESE 01:35:36 10° NE visible
08 May 2.2 03:09:05 12° SW 03:14:28 89° NW 03:20:11 10° NE visible
09 May 3.4 01:13:10 14° SSE 01:16:51 27° ESE 01:21:33 10° NE visible
09 May 2.2 02:55:01 11° SW 03:00:25 89° SE 03:06:08 10° NE visible
